Location: Le Petit-Vavre
(46.5081°N, 1.5239°E)
Time: 17:14:54
(UTC+00:00)

Cosmos 1302 Rocket - Pass Details

Date: 03 March 2021
Orbit: 756 x 777 km, 74.0° (Epoch: 15 April)

Event Time Altitude Azimuth Distance (km) Brightness Sun altitude
Rises 18:07:20 0° 199° (SSW) 3,197 7.6 -5.0°
Reaches altitude 10° 18:09:41 10° 200° (SSW) 2,277 6.8 -5.4°
Maximum altitude 18:14:51 89° 113° (ESE) 765 4.0 -6.3°
Drops below altitude 10° 18:20:05 10° 22° (NNE) 2,302 6.2 -7.2°
Sets 18:22:28 0° 23° (NNE) 3,235 7.0 -7.6°
